Weather History for KSAA - March, 2014

Change the Weather History Date:

Saturday, March 29, 2014

  Actual Average Record
Temperature  
Mean Temperature 39 °F -  
Max Temperature 55 °F 44 °F 60 °F (2015)
Min Temperature 23 °F 20 °F 23 °F (2014)
Degree Days  
Heating Degree Days 26    
Moisture  
Dew Point 17 °F    
Average Humidity 43    
Maximum Humidity 80    
Minimum Humidity 20    
Precipitation  
Precipitation 0.00 in - - ()
Sea Level Pressure  
Sea Level Pressure 30.07 in    
Wind  
Wind Speed 14 mph (SSW)    
Max Wind Speed 29 mph    
Max Gust Speed 41 mph    
Visibility 10 miles    
Events      
Averages and records for this station are not official NWS values.
T = Trace of Precipitation, MM = Missing Value Source: NWS Daily Summary

Daily Weather History Graph

Daily Weather History Graph

Search for Another Location

Airport or City:

Trip Planner

Search our weather history database for the weather conditions in past years. The results will help you decide how hot, cold, wet, or windy it might be!

Date:

Astronomy

Mar. 29, 2014 Rise Set
Actual Time 6:55 AM MDT 7:29 PM MDT
Civil Twilight 6:27 AM MDT 7:57 PM MDT
Nautical Twilight 5:54 AM MDT 8:30 PM MDT
Astronomical Twilight 5:20 AM MDT 9:04 PM MDT
Moon 6:06 AM MDT (3/29) 6:37 PM MDT (3/29)
Length of Visible Light 13h 29m
Length of Day
12h 34m
Waning Crescent, 1% of the Moon is Illuminated
Mar 29
Waning Crescent
Mar 30
New
Apr 7
First Quarter
Apr 15
Full
Apr 22
Last Quarter

Hourly Weather History & Observations

Time (MDT) Temp. Windchill Dew Point Humidity Pressure Visibility Wind Dir Wind Speed Gust Speed Precip Events Conditions
12:15 AM 28.4 °F 19.7 °F 17.6 °F 64% 30.20 in 10.0 mi SSW 9.2 mph - N/A   Clear
12:35 AM 28.4 °F 20.4 °F 17.6 °F 64% 30.20 in 10.0 mi SSW 8.1 mph - N/A   Clear
12:55 AM 26.6 °F 18.2 °F 17.6 °F 69% 30.20 in 10.0 mi South 8.1 mph - N/A   Clear
1:15 AM 23.0 °F 15.8 °F 17.6 °F 80% 30.19 in 10.0 mi SSE 5.8 mph - N/A   Clear
1:35 AM 23.0 °F 13.1 °F 17.6 °F 80% 30.19 in 10.0 mi SSE 9.2 mph - N/A   Clear
1:55 AM 23.0 °F 12.4 °F 17.6 °F 80% 30.18 in 10.0 mi South 10.4 mph - N/A   Clear
2:15 AM 26.6 °F 17.5 °F 17.6 °F 69% 30.18 in 10.0 mi South 9.2 mph - N/A   Clear
2:35 AM 24.8 °F 17.9 °F 17.6 °F 74% 30.18 in 10.0 mi SE 5.8 mph - N/A   Clear
2:55 AM 23.0 °F - 17.6 °F 80% 30.17 in 10.0 mi Calm Calm - N/A   Clear
3:15 AM 23.0 °F 17.0 °F 17.6 °F 80% 30.15 in 10.0 mi ESE 4.6 mph - N/A   Clear
3:35 AM 28.4 °F 19.7 °F 19.4 °F 69% 30.15 in 10.0 mi South 9.2 mph - N/A   Clear
3:55 AM 28.4 °F 19.7 °F 17.6 °F 64% 30.14 in 10.0 mi South 9.2 mph - N/A   Clear
4:15 AM 30.2 °F 19.8 °F 17.6 °F 60% 30.13 in 10.0 mi South 13.8 mph - N/A   Clear
4:35 AM 30.2 °F 20.2 °F 17.6 °F 60% 30.13 in 10.0 mi South 12.7 mph - N/A   Clear
4:55 AM 30.2 °F 20.8 °F 17.6 °F 60% 30.13 in 10.0 mi SSE 11.5 mph - N/A   Clear
5:15 AM 28.4 °F 18.5 °F 17.6 °F 64% 30.12 in 10.0 mi SSE 11.5 mph 16.1 mph N/A   Clear
5:35 AM 32.0 °F 21.6 °F 17.6 °F 55% 30.12 in 10.0 mi South 15.0 mph 18.4 mph N/A   Clear
5:55 AM 32.0 °F 23.6 °F 17.6 °F 55% 30.13 in 10.0 mi South 10.4 mph - N/A   Clear
6:15 AM 32.0 °F 21.6 °F 17.6 °F 55% 30.13 in 10.0 mi South 15.0 mph - N/A   Clear
6:35 AM 32.0 °F 23.0 °F 17.6 °F 55% 30.14 in 10.0 mi South 11.5 mph - N/A   Clear
6:55 AM 32.0 °F 23.6 °F 17.6 °F 55% 30.13 in 10.0 mi South 10.4 mph - N/A   Clear
7:15 AM 30.2 °F 20.2 °F 17.6 °F 60% 30.13 in 10.0 mi South 12.7 mph - N/A   Clear
7:35 AM 32.0 °F 22.1 °F 17.6 °F 55% 30.13 in 10.0 mi South 13.8 mph - N/A   Clear
7:55 AM 32.0 °F 22.1 °F 17.6 °F 55% 30.13 in 10.0 mi South 13.8 mph - N/A   Clear
8:15 AM 35.6 °F 25.2 °F 17.6 °F 48% 30.14 in 10.0 mi South 18.4 mph 21.9 mph N/A   Clear
8:35 AM 37.4 °F 28.2 °F 17.6 °F 45% 30.13 in 10.0 mi SSE 16.1 mph - N/A   Clear
8:55 AM 39.2 °F 30.8 °F 17.6 °F 42% 30.12 in 10.0 mi SSE 15.0 mph 18.4 mph N/A   Clear
9:15 AM 42.8 °F 36.6 °F 14.0 °F 31% 30.12 in 10.0 mi SSW 11.5 mph - N/A   Clear
9:35 AM 44.6 °F 36.6 °F 14.0 °F 29% 30.12 in 10.0 mi SSW 19.6 mph 29.9 mph N/A   Clear
9:55 AM 46.4 °F 39.2 °F 14.0 °F 27% 30.12 in 10.0 mi SW 18.4 mph 29.9 mph N/A   Clear
10:15 AM 46.4 °F 38.3 °F 14.0 °F 27% 30.11 in 10.0 mi SW 23.0 mph 29.9 mph N/A   Clear
10:35 AM 48.2 °F - 15.8 °F 27% 30.10 in 10.0 mi SW 25.3 mph 34.5 mph N/A   Clear
10:55 AM 48.2 °F - 15.8 °F 27% 30.10 in 10.0 mi SW 26.5 mph 32.2 mph N/A   Clear
11:15 AM 50.0 °F - 15.8 °F 26% 30.10 in 10.0 mi SW 25.3 mph 35.7 mph N/A   Clear
11:35 AM 50.0 °F - 17.6 °F 28% 30.09 in 10.0 mi SW 27.6 mph 41.4 mph N/A   Clear
11:55 AM 51.8 °F - 17.6 °F 26% 30.09 in 10.0 mi WSW 27.6 mph 34.5 mph N/A   Clear
12:15 PM 51.8 °F - 17.6 °F 26% 30.08 in 10.0 mi WSW 28.8 mph 35.7 mph N/A   Clear
12:35 PM 51.8 °F - 17.6 °F 26% 30.07 in 10.0 mi SW 25.3 mph 41.4 mph N/A   Clear
12:55 PM 51.8 °F - 17.6 °F 26% 30.07 in 10.0 mi SSW 24.2 mph 38.0 mph N/A   Clear
1:15 PM 51.8 °F - 17.6 °F 26% 30.06 in 10.0 mi WSW 23.0 mph 34.5 mph N/A   Clear
1:35 PM 51.8 °F - 17.6 °F 26% 30.06 in 10.0 mi WSW 24.2 mph 34.5 mph N/A   Scattered Clouds
1:55 PM 50.0 °F - 17.6 °F 28% 30.04 in 10.0 mi SW 23.0 mph 38.0 mph N/A   Scattered Clouds
2:15 PM 51.8 °F - 17.6 °F 26% 30.04 in 10.0 mi SW 21.9 mph 39.1 mph N/A   Mostly Cloudy
2:35 PM 53.6 °F - 17.6 °F 24% 30.03 in 10.0 mi SW 23.0 mph 32.2 mph N/A   Overcast
2:55 PM 53.6 °F - 15.8 °F 22% 30.02 in 10.0 mi SW 26.5 mph 40.3 mph N/A   Scattered Clouds
3:15 PM 55.4 °F - 14.0 °F 20% 30.00 in 10.0 mi SSW 21.9 mph 34.5 mph N/A   Clear
3:35 PM 53.6 °F - 14.0 °F 21% 30.00 in 10.0 mi SSW 25.3 mph 35.7 mph N/A   Scattered Clouds
3:55 PM 55.4 °F - 14.0 °F 20% 29.99 in 10.0 mi SW 24.2 mph 33.4 mph N/A   Scattered Clouds
4:15 PM 55.4 °F - 14.0 °F 20% 29.98 in 10.0 mi SW 28.8 mph 36.8 mph N/A   Scattered Clouds
4:35 PM 55.4 °F - 14.0 °F 20% 29.98 in 10.0 mi SW 25.3 mph 35.7 mph N/A   Scattered Clouds
4:55 PM 53.6 °F - 14.0 °F 21% 29.98 in 10.0 mi SW 28.8 mph 35.7 mph N/A   Clear
5:15 PM 51.8 °F - 15.8 °F 24% 29.98 in 10.0 mi SSW 25.3 mph 34.5 mph N/A   Clear
5:35 PM 53.6 °F - 15.8 °F 22% 29.98 in 10.0 mi SW 23.0 mph 35.7 mph N/A   Clear
5:56 PM 51.8 °F - 17.6 °F 26% 29.98 in 10.0 mi SW 23.0 mph 33.4 mph N/A   Clear
6:15 PM 51.8 °F - 15.8 °F 24% 29.98 in 10.0 mi SW 21.9 mph 32.2 mph N/A   Clear
6:35 PM 50.0 °F - 17.6 °F 28% 29.98 in 10.0 mi WSW 15.0 mph 25.3 mph N/A   Clear
6:55 PM 48.2 °F - 17.6 °F 30% 29.98 in 10.0 mi SW 10.4 mph - N/A   Clear
7:16 PM 46.4 °F 41.1 °F 17.6 °F 32% 29.98 in 10.0 mi SSW 11.5 mph 19.6 mph N/A   Clear
7:35 PM 42.8 °F 38.0 °F 17.6 °F 36% 29.99 in 10.0 mi South 8.1 mph - N/A   Clear
7:56 PM 41.0 °F 35.8 °F 17.6 °F 39% 29.98 in 10.0 mi South 8.1 mph - N/A   Clear
8:15 PM 39.2 °F 32.5 °F 19.4 °F 45% 29.98 in 10.0 mi South 10.4 mph - N/A   Clear
8:35 PM 41.0 °F 35.2 °F 17.6 °F 39% 29.99 in 10.0 mi South 9.2 mph - N/A   Clear
8:55 PM 39.2 °F 32.5 °F 19.4 °F 45% 30.00 in 10.0 mi South 10.4 mph - N/A   Clear
9:15 PM 39.2 °F 32.5 °F 19.4 °F 45% 29.99 in 10.0 mi South 10.4 mph - N/A   Clear
9:35 PM 37.4 °F 29.8 °F 19.4 °F 48% 29.98 in 10.0 mi South 11.5 mph - N/A   Clear
9:55 PM 41.0 °F 34.7 °F 17.6 °F 39% 29.98 in 10.0 mi South 10.4 mph - N/A   Clear
10:15 PM 39.2 °F 32.5 °F 17.6 °F 42% 29.97 in 10.0 mi South 10.4 mph - N/A   Clear
10:35 PM 37.4 °F 30.8 °F 19.4 °F 48% 29.97 in 10.0 mi South 9.2 mph - N/A   Clear
10:55 PM 39.2 °F 32.5 °F 17.6 °F 42% 29.97 in 10.0 mi SSE 10.4 mph - N/A   Clear
11:15 PM 41.0 °F 34.3 °F 17.6 °F 39% 29.96 in 10.0 mi SSE 11.5 mph - N/A   Clear
11:35 PM 39.2 °F 31.6 °F 17.6 °F 42% 29.95 in 10.0 mi SSE 12.7 mph - N/A   Clear
11:55 PM 41.0 °F 33.9 °F 15.8 °F 36% 29.95 in 10.0 mi South 12.7 mph - N/A   Clear